Weather History for KLOZ - February, 2013

Change the Weather History Date:

Saturday, February 16, 2013

  Actual Average Record
Temperature  
Mean Temperature 28 °F 40 °F  
Max Temperature 33 °F 50 °F 69 °F (2006)
Min Temperature 23 °F 30 °F 0 °F (1958)
Degree Days  
Heating Degree Days 37 25  
Month to date heating degree days 438 429  
Since 1 July heating degree days 3021 2992  
Cooling Degree Days 0 0  
Month to date cooling degree days 0 0  
Year to date cooling degree days 0 0  
Moisture  
Dew Point 16 °F    
Average Humidity 62    
Maximum Humidity 81    
Minimum Humidity 42    
Precipitation  
Precipitation T in 0.13 in 1.87 in (2003)
Month to date precipitation 0.53 2.08  
Year to date precipitation 5.77 5.62  
Sea Level Pressure  
Sea Level Pressure 30.07 in    
Wind  
Wind Speed 7 mph (NW)    
Max Wind Speed 20 mph    
Max Gust Speed 28 mph    
Visibility 8 miles    
Events Snow    
T = Trace of Precipitation, MM = Missing Value Source: NWS Daily Summary

Daily Weather History Graph

Daily Weather History Graph

Search for Another Location

Airport or City:

Trip Planner

Search our weather history database for the weather conditions in past years. The results will help you decide how hot, cold, wet, or windy it might be!

Date:

Astronomy

Feb. 16, 2013 Rise Set
Actual Time 7:23 AM EST 6:17 PM EST
Civil Twilight 6:57 AM EST 6:44 PM EST
Nautical Twilight 6:26 AM EST 7:14 PM EST
Astronomical Twilight 5:56 AM EST 7:44 PM EST
Moon 10:46 AM EST (2/16) 12:06 AM EST (2/16)
Length of Visible Light 11h 47m
Length of Day
10h 54m
Waxing Crescent, 39% of the Moon is Illuminated
Feb 16
Waxing Crescent
Feb 17
First Quarter
Feb 25
Full
Mar 4
Last Quarter
Mar 11
New

Hourly Weather History & Observations

Time (EST) Temp. Windchill Dew Point Humidity Pressure Visibility Wind Dir Wind Speed Gust Speed Precip Events Conditions
12:53 AM 28.9 °F 23.9 °F 19.9 °F 69% 30.12 in 10.0 mi NNW 4.6 mph - N/A   Partly Cloudy
1:53 AM 28.0 °F 21.7 °F 21.9 °F 78% 30.11 in 10.0 mi North 5.8 mph - N/A   Clear
2:53 AM 27.0 °F 23.0 °F 21.9 °F 81% 30.10 in 10.0 mi NNW 3.5 mph - N/A   Clear
3:53 AM 26.1 °F 21.9 °F 21.0 °F 81% 30.09 in 10.0 mi North 3.5 mph - N/A   Clear
4:53 AM 25.0 °F 19.3 °F 19.0 °F 78% 30.08 in 10.0 mi NNW 4.6 mph - N/A   Clear
5:53 AM 25.0 °F 19.3 °F 19.0 °F 78% 30.08 in 10.0 mi North 4.6 mph - N/A   Clear
7:53 AM 24.1 °F 18.2 °F 19.0 °F 81% 30.09 in 10.0 mi NNW 4.6 mph - N/A   Clear
8:53 AM 26.1 °F 19.4 °F 19.9 °F 78% 30.09 in 10.0 mi North 5.8 mph - N/A   Clear
9:53 AM 28.0 °F 20.8 °F 19.0 °F 69% 30.09 in 10.0 mi North 6.9 mph - N/A   Partly Cloudy
10:53 AM 30.9 °F 26.2 °F 15.1 °F 52% 30.08 in 10.0 mi NNE 4.6 mph - N/A   Clear
11:53 AM 32.0 °F 24.2 °F 12.9 °F 45% 30.07 in 10.0 mi North 9.2 mph - N/A   Scattered Clouds
12:53 PM 30.9 °F 21.7 °F 12.9 °F 47% 30.06 in 10.0 mi NNW 11.5 mph 19.6 mph N/A   Overcast
1:53 PM 30.9 °F 21.7 °F 15.1 °F 52% 30.05 in 9.0 mi WNW 11.5 mph - 0.00 in   Overcast
2:19 PM 28.4 °F 16.6 °F 21.2 °F 74% 30.03 in 1.8 mi NW 16.1 mph 27.6 mph 0.00 in Snow Light Snow
2:23 PM 26.6 °F 16.2 °F 21.2 °F 80% 30.03 in 0.8 mi NW 11.5 mph 23.0 mph 0.00 in Snow Light Snow
2:30 PM 28.4 °F 21.2 °F 23.0 °F 80% 30.02 in 1.0 mi NNW 6.9 mph - 0.00 in Snow Light Snow
2:34 PM 30.2 °F 23.4 °F 23.0 °F 75% 30.02 in 3.0 mi NNW 6.9 mph - 0.00 in Snow Light Snow
2:53 PM 33.1 °F 24.4 °F 17.1 °F 52% 30.04 in 10.0 mi WNW 11.5 mph 18.4 mph 0.00 in   Scattered Clouds
3:53 PM 30.0 °F 19.5 °F 16.0 °F 56% 30.04 in 10.0 mi WNW 13.8 mph 24.2 mph 0.00 in   Mostly Cloudy
4:44 PM 26.6 °F 16.8 °F 19.4 °F 74% 30.02 in 1.0 mi WNW 10.4 mph 23.0 mph 0.00 in Snow Light Snow
4:51 PM 26.6 °F 19.1 °F 19.4 °F 74% 30.02 in 0.8 mi West 6.9 mph - 0.00 in Snow Light Snow
4:53 PM 27.0 °F 19.5 °F 19.9 °F 75% 30.06 in 1.0 mi West 6.9 mph - 0.00 in Snow Light Snow
5:01 PM 26.6 °F 20.0 °F 19.4 °F 74% 30.02 in 9.0 mi WNW 5.8 mph - 0.00 in Snow Light Snow
5:53 PM 28.9 °F 21.1 °F 12.9 °F 51% 30.06 in 10.0 mi NW 8.1 mph - 0.00 in   Scattered Clouds
6:53 PM 28.0 °F 20.8 °F 10.0 °F 47% 30.07 in 10.0 mi WNW 6.9 mph - N/A   Scattered Clouds
7:53 PM 26.1 °F 19.4 °F 9.0 °F 49% 30.09 in 10.0 mi WNW 5.8 mph - N/A   Clear
8:53 PM 26.1 °F 16.8 °F 6.1 °F 43% 30.10 in 10.0 mi WNW 9.2 mph - N/A   Clear
9:53 PM 25.0 °F 15.5 °F 5.0 °F 43% 30.12 in 10.0 mi NW 9.2 mph 18.4 mph N/A   Clear
10:53 PM 24.1 °F 16.0 °F 6.1 °F 46% 30.13 in 10.0 mi WNW 6.9 mph - N/A   Clear
11:53 PM 24.1 °F 13.7 °F 7.0 °F 48% 30.14 in 10.0 mi WNW 10.4 mph 16.1 mph N/A   Mostly Cloudy